Location: Allens Chapel
(33.6459°N, 95.9605°W)
Time: 07:19:39
(UTC+00:00)

ACS3 Solar Sail - Visible Passes

Search period start: 05 October 2024 00:00
Search period end: 15 October 2024 00:00
Orbit: 962 x 1037 km, 97.4° (Epoch: 05 October)

Date Brightness Start Highest point End Pass type
(mag) Time Alt. Az. Time Alt. Az. Time Alt. Az.
05 Oct 3.6 00:45:12 10° ENE 00:46:35 11° ENE 00:48:09 10° NE visible
05 Oct 1.9 02:30:23 68° N 02:30:23 68° N 02:35:55 10° N visible
05 Oct 4.6 04:15:33 11° WNW 04:15:33 11° WNW 04:16:18 10° WNW visible
06 Oct 3.0 01:17:41 22° ENE 01:18:05 22° ENE 01:22:42 10° NNE visible
06 Oct 2.8 03:02:52 45° WNW 03:02:52 45° WNW 03:07:45 10° NNW visible
07 Oct 2.3 01:50:09 40° ENE 01:50:09 40° ENE 01:55:35 10° N visible
07 Oct 3.7 03:35:20 25° WNW 03:35:20 25° WNW 03:38:59 10° NW visible
08 Oct 2.0 02:22:36 61° NNE 02:22:36 61° NNE 02:27:52 10° N visible
08 Oct 4.5 04:07:47 12° WNW 04:07:47 12° WNW 04:08:57 10° WNW visible
09 Oct 3.1 01:09:51 19° ENE 01:10:04 19° ENE 01:14:22 10° NNE visible
09 Oct 2.7 02:55:02 46° NW 02:55:02 46° NW 02:59:43 10° NNW visible
10 Oct 2.5 01:42:17 35° ENE 01:42:17 35° ENE 01:47:20 10° N visible
10 Oct 3.7 03:27:27 26° WNW 03:27:27 26° WNW 03:31:01 10° NW visible
11 Oct 2.1 02:14:41 54° NNE 02:14:41 54° NNE 02:19:39 10° N visible
11 Oct 4.4 03:59:51 13° WNW 03:59:51 13° WNW 04:01:17 10° NW visible
12 Oct 3.2 01:01:54 17° ENE 01:01:56 17° ENE 01:05:50 10° NNE visible
12 Oct 2.7 02:47:04 46° NW 02:47:04 46° NW 02:51:31 10° NNW visible
13 Oct 2.7 01:34:16 31° NE 01:34:16 31° NE 01:38:54 10° N visible
13 Oct 3.6 03:19:26 27° WNW 03:19:26 27° WNW 03:22:53 10° NNW visible
14 Oct 2.3 02:06:37 47° NNE 02:06:37 47° NNE 02:11:16 10° N visible
14 Oct 4.4 03:51:47 14° WNW 03:51:47 14° WNW 03:53:22 10° NW visible
